Location: Sternwarte ZA, Rosenfeld-Brittheim
(48.2889°N, 8.6789°E)
Time: 11:05:19
(UTC+02:00)

N. Korean satellite - Visible Passes

Search period start: 21 October 2018 00:00
Search period end: 30 October 2018 23:00
Orbit: 459 x 510 km, 97.2° (Epoch: 20 October)

Date Brightness Start Highest point End Pass type
(mag) Time Alt. Az. Time Alt. Az. Time Alt. Az.
21 Oct 10.2 06:46:36 10° ENE 06:48:32 14° E 06:50:26 10° ESE visible
21 Oct 6.9 18:57:29 10° S 19:01:13 78° WSW 19:04:59 10° NNW visible
22 Oct 10.2 20:08:43 10° WSW 20:10:37 13° W 20:12:32 10° WNW visible
23 Oct 9.3 19:42:54 10° SSW 19:45:59 24° W 19:49:05 10° NW visible
24 Oct 9.6 07:05:57 10° NE 07:08:51 22° E 07:11:43 10° SSE visible
24 Oct 8.0 19:17:50 10° S 19:21:25 44° W 19:25:02 10° NNW visible
25 Oct 10.3 06:42:40 10° ENE 06:44:12 12° E 06:45:43 10° ESE visible
25 Oct 6.7 18:53:13 10° SSE 18:56:58 86° W 19:00:43 10° NNW visible
26 Oct 10.1 20:04:07 10° SW 20:06:17 15° W 20:08:29 10° NW visible
27 Oct 8.4 07:25:44 10° NNE 07:29:07 37° E 07:32:25 10° SSE visible
27 Oct 9.1 19:38:29 10° SSW 19:41:40 26° W 19:44:52 10° NW visible
28 Oct 9.7 06:01:47 10° NE 06:04:31 20° E 06:07:11 10° SE visible
28 Oct 7.8 18:13:29 10° S 18:17:07 49° W 18:20:46 10° NNW visible
29 Oct 10.4 05:38:54 10° ENE 05:39:49 11° E 05:40:44 10° ESE visible
29 Oct 6.6 17:48:55 10° SSE 17:52:39 85° ENE 17:56:24 10° NNW visible
30 Oct 9.9 18:59:33 10° SW 19:01:56 16° W 19:04:20 10° NW visible
